Miscellaneous Local Product
Issued by NWS Hastings, NE

Home | Current Version | Previous Version | Graphics & Text | Print | Product List | Glossary On
Versions: 1 2 3 4 5 6 7 8 9 10 11 12 13 14 15 16 17 18 19 20 21 22 23 24 25 26 27 28 29 30 31 32 33 34 35 36 37 38 39 40 41 42 43 44 45 46 47 48 49 50
018
AXUS43 KGID 261802
MISGRI

GID CWA HOURLY WEATHER ROUNDUP
NATIONAL WEATHER SERVICE HASTINGS NE
100 PM CDT MON SEP 26 2016

NOTE: "FAIR" INDICATES FEW OR NO CLOUDS BELOW 12,000 FEET WITH NO
SIGNIFICANT WEATHER AND/OR OBSTRUCTIONS TO VISIBILITY.

...SOUTH CENTRAL NEBRASKA...

CITY           SKY/WX    TMP DP  RH WIND       PRES   REMARKS
GRAND ISLAND   SUNNY     73  36  25 W18       30.24F
HASTINGS       SUNNY     72  34  24 W14G24    30.27F
KEARNEY        SUNNY     72  30  21 W17       30.26F
ORD            SUNNY     72  34  24 W12G21    30.21F
YORK           SUNNY     72  37  28 W13       30.24F
AURORA         SUNNY     71  34  25 W10G20    30.24F
LEXINGTON      SUNNY     73  31  21 W8        30.27F
HOLDREGE       SUNNY     71  27  19 W16G22    30.27F
HEBRON         SUNNY     72  35  26 W12G18    30.26F

...NEBRASKA PANHANDLE...

CITY           SKY/WX    TMP DP  RH WIND       PRES   REMARKS
CHADRON        SUNNY     71  39  31 NW16      30.30F
ALLIANCE       SUNNY     70  37  29 W13G18    30.31F
SCOTTSBLUFF    SUNNY     69  43  38 W9        30.35F
SIDNEY         SUNNY     72  37  28 NW13G21   30.35F

...WESTERN AND NORTH CENTRAL NEBRASKA...

CITY           SKY/WX    TMP DP  RH WIND       PRES   REMARKS
VALENTINE      SUNNY     71  34  25 NW17G25   30.23F
AINSWORTH      SUNNY     69  39  32 NW15G24   30.24S
ONEILL         SUNNY     73  30  21 NW13G22   30.21F
BROKEN BOW     SUNNY     74  35  24 NW14G24   30.24F
IMPERIAL       SUNNY     72  35  25 NW15G21   30.30F
NORTH PLATTE   SUNNY     73  38  27 W14       30.27F
MCCOOK         SUNNY     73  36  25 W13       30.28F

...EASTERN NEBRASKA...

CITY           SKY/WX    TMP DP  RH WIND       PRES   REMARKS
NORFOLK        SUNNY     72  37  28 NW15G22   30.19F
SO SIOUX CITY  SUNNY     72  43  35 NW17G26   30.14F
TEKAMAH        SUNNY     73  39  29 W21G26    30.17F
COLUMBUS       SUNNY     72  39  30 W14       30.22F
ALBION         SUNNY     71  35  26 W13G22    30.21F
OMAHA EPPLEY   MOSUNNY   73  40  30 W15       30.19F
OFFUTT AFB     SUNNY     71  41  33 W13G22    30.18F
MILLARD        SUNNY     73  42  32 W20       30.19F
LINCOLN        SUNNY     74  38  27 NW14      30.22F
NEBRASKA CITY  SUNNY     71  27  19 NW20      30.22F
BEATRICE       SUNNY     73  41  31 NW9G22    30.24F
FALLS CITY     SUNNY     71  43  36 NW14G20   30.22F

...NORTHERN KANSAS...

CITY           SKY/WX    TMP DP  RH WIND       PRES   REMARKS
GOODLAND       SUNNY     73  37  27 W14       30.32F
HILL CITY      SUNNY     72  35  25 SW10      30.31F HAZE
NORTON         CLEAR     73  23  15 S14       30.28F
PHILLIPSBURG   SUNNY     73  30  20 SW10G16   30.29F
SMITH CENTER   SUNNY     72  32  23 SW13G21   30.29F
HAYS           SUNNY     73  30  20 W12G20    30.31F
RUSSELL        SUNNY     70  31  23 SW6       30.30F
CONCORDIA      SUNNY     72  36  26 W12       30.28F
SALINA         SUNNY     73  39  29 W5        30.30F
TOPEKA         SUNNY     71  41  33 W9        30.27F



USA.gov is the U.S. government's official web portal to all federal, state and local government web resources and services.